Home   Weather   Anchorage   Past weeks

Flag for USA Past Weather in Anchorage, Alaska, USA — Yesterday and Last 2 Weeks

Now
41 °F

Overcast.


Feels Like: 35 °F
Forecast: 41 / 50 °F
Wind: 9 mph from Southwest

Location: Lake Hood Seaplane

Current Time: Apr 27, 2017 at 1:18:35 am

Latest Report: Apr 27, 2017 at 12:53 am


Visibility: 10 mi

Pressure: 29.60 "Hg

Humidity: 82%

Dew Point: 36 °F

Location of AnchorageLocation

Past Weather in Anchorage — Graph

°F

Anchorage Temperature Yesterday

Maximum temperature yesterday: 51 °F (at 12:53 pm)
Minimum temperature yesterday: 34 °F (at 5:53 am)
Average temperature yesterday: 44 °F

High & Low Weather Summary for the Past Weeks

 TemperatureHumidityPressure
High54 °F (Apr 22, 6:53 pm)100% (Apr 26, 5:53 am)30.37 "Hg (Apr 26, 5:53 am)
Low25 °F (Apr 19, 6:53 am)26% (Apr 14, 7:53 pm)29.51 "Hg (Apr 26, 4:53 pm)
Average40 °F63%29.93 "Hg
* Reported Apr 11 11:53 pm — Apr 26 11:53 pm, Anchorage, Weather by CustomWeather, © 2017

Note: Actual official high and low records may vary slightly from our data, if they occured in-between our weather recording intervals... More about our weather records

Advertising

Anchorage Weather History for the Previous 24 Hours

Scroll right to see more
 ConditionsComfort  
Time TempWeatherWind HumidityBarometerVisibility
11:53 pm
Wed, Apr 26
43 °FOvercast.No wind74%29.58 "Hg10 mi
10:53 pm42 °FMostly cloudy.6 mph73%29.57 "Hg10 mi
9:53 pm44 °FOvercast.No wind68%29.55 "Hg10 mi
8:53 pm47 °FOvercast.3 mph61%29.53 "Hg10 mi
7:53 pm50 °FOvercast.No wind57%29.52 "Hg10 mi
6:53 pm50 °FOvercast.7 mph57%29.51 "Hg10 mi
5:53 pm50 °FOvercast.8 mph59%29.51 "Hg10 mi
4:53 pm50 °FSunny.13 mph63%29.51 "Hg10 mi
3:53 pm50 °FSunny.9 mph57%29.51 "Hg10 mi
2:53 pm51 °FSunny.7 mph54%29.52 "Hg10 mi
1:53 pm51 °FSunny.5 mph56%29.52 "Hg10 mi
12:53 pm51 °FSunny.6 mph50%29.53 "Hg10 mi
11:53 am48 °FSunny.5 mph66%29.53 "Hg10 mi
10:53 am44 °FSunny.5 mph76%29.54 "Hg10 mi
9:53 am43 °FSunny.5 mph79%29.54 "Hg10 mi
8:53 am40 °FScattered clouds.No wind86%29.55 "Hg10 mi
7:53 am38 °FOvercast.No wind93%29.55 "Hg10 mi
6:53 am34 °FPassing clouds.No wind100%29.56 "Hg10 mi
5:53 am34 °FPassing clouds.No wind100%29.56 "Hg10 mi
4:53 am36 °FMostly cloudy.No wind92%29.57 "Hg10 mi
3:53 am37 °FOvercast.No wind93%29.57 "Hg10 mi
2:53 am38 °FOvercast.No wind90%29.58 "Hg10 mi
1:53 am39 °FOvercast.No wind86%29.59 "Hg10 mi
Weather by CustomWeather, © 2017

See weather overviewHow to use our weather pages